DECAYED

STARLINK-1854, 47141 (Decayed)

Orbit data source: Space-Track

STARLINK-1854, 47141 was a payload satellite owned by SpaceX/Seattle (US) in LEO that was launched on Wed, 25 Nov 2020 UTC via an FALCON 9 launch vehicle from the Air Force Eastern Test Range (AFETR). Payload-class satellites include a variety of spacecraft equipped with specific instruments for various scientific and technological missions. These include communications satellites like Starlink; space stations such as the ISS; scientific satellites like the Hubble; Earth observation satellites from companies like Planet Labs, Umbra, and HawkEye 360; GPS; miniature CubeSats for education and research; and military/defense satellites.

Not visible in the next 10 days
Identifier
47141, 2020-088V
Orbit
Decayed
Country
Flag of USUS
Related business
Manufacturer
SpaceX/Seattle
Mission
Decayed Commercial Communications
Bus & Motor
STARLINK, Unknown motor
Mass
260 kg wet, ~248 kg dry
Launch date (UTC)
2020-11-25 (6 years ago)
Launch vehicle
FALCON 9
Launch site
Air Force Eastern Test Range (AFETR)
Object type
Payload
Rocket body
Debris
Shape & HBR
Box + 1 Pan, 10.1 m
Radar Cross Section
13.562 m², Large (>1 m²)

Expand to show TLE details & history
Last TLE update: 1 year ago

TLE from 1 year ago
0 STARLINK-1854
1 47141U 20088V   25040.08024512  .09720436  12422-4  53835-3 0  9991
2 47141  53.0268 221.9579 0005850 270.6400 190.2177 16.42122864233455
Epoch: 2025-02-09T01:55Z
TLE epoch observation values (Epoch: 2025-02-09T01:55:33.178Z)
Latitude
51.84556°
Longitude
161.33993°
Altitude
170.1 km
Speed
7.808 km/s
True Right ascension
21h 58m 35s
True Declination
51° 39' 48"
Sunlit
Object was in daylight at epoch
Visualization orbit readout
Latitude
Unknown
Longitude
Unknown
Altitude
Unknown
Speed
Unknown
Apparent Right ascension
Unknown
Apparent Declination
Unknown
Sunlit
N/A
Visualization observer readout
Local Sidereal Time
21:29:01
Azimuth
Unknown
Elevation
Unknown
Doppler factor
Unknown
Orbital elements
Apogee altitude
164.278 km
Perigee altitude
156.627 km
Semi-major axis
6,538.589 km
Eccentricity
0.00059
Inclination
53.0268°
RAAN
221.9579°
Arg. of periapsis
270.64°
True anomaly
190.20582°
Mean anomaly
190.2177°
Eccentric anomaly
190.21176°
Mean motion
4.10504 °/min
Orbital period
87.7 mins
BSTAR
0.00053835
Loading maneuver chart data...
Computing Atmospheric mass density...

Documentation

Showing up to 5 results
|